#timestamp,LO_Frequency,Hit,StdDev 
1564171215.7,286046999.5,N
1564171235.5,286046998.2,N
1564171255.3,286046998.6,N
1564171275.2,286047001.4,N
1564171295.0,286047001.8,N
1564171295.9,286047001.8,N
1564171315.8,286047004.4,N
1564171335.6,286047002.1,N
1564171355.4,286047002.5,N
1564171375.3,286046999.7,N
1564171395.1,286047000.0,N
1564171415.9,286047001.0,N
1564171435.7,286046998.1,N
1564171455.5,286046999.3,N
1564171475.4,286047000.9,N
1564171495.2,286046998.7,N
1564171515.0,286046999.9,N
1564171515.9,286046999.9,N
1564171535.8,286047002.5,N
1564171555.6,286047000.3,N
1564171575.5,286047001.1,N
1564171595.3,286046998.9,N
1564171615.2,286046998.4,N
1564171635.9,286046999.6,N
1564171655.7,286046996.6,N
1564171675.6,286046999.0,N
1564171695.4,286047000.8,N
1564171715.3,286047000.7,N
1564171735.1,286047000.1,N
1564171736.0,286047000.1,N
1564171755.8,286047002.2,N
1564171775.7,286047001.4,N
1564171795.5,286047004.2,N
1564171815.4,286047003.8,N
1564171835.2,286047003.9,N
1564171855.0,286047004.0,N
1564171855.9,286047004.0,N
1564171875.8,286047003.6,N
1564171895.6,286047004.2,N
1564171915.4,286047004.4,N
1564171935.3,286047001.4,N
1564171955.1,286047001.4,N
1564171975.9,286047004.0,N
1564171995.7,286047004.3,N
1564172015.5,286047004.4,N
1564172035.4,286047004.4,N
1564172055.2,286047004.0,N
1564172075.1,286047002.1,N
1564172076.0,286047002.1,N
1564172095.8,286047004.4,N
1564172115.6,286047002.8,N
1564172135.5,286047002.7,N
1564172155.3,286046999.8,N
1564172175.2,286047002.8,N
1564172195.9,286047000.1,N
1564172215.7,286047000.0,N
1564172235.6,286047000.8,N
1564172255.4,286046998.1,N
1564172275.3,286046998.9,N
1564172295.1,286046999.1,N
1564172296.0,286046999.1,N
1564172315.8,286046996.6,N
1564172335.7,286046996.5,N
1564172355.5,286046999.5,N
1564172375.4,286046999.0,N
1564172395.2,286046998.1,N
1564172415.0,286046999.0,N
1564172415.9,286046999.0,N
1564172435.8,286046999.3,N
1564172455.6,286046999.4,N
1564172475.5,286046999.0,N
1564172495.3,286046999.1,N
1564172515.1,286046996.7,N
1564172535.9,286046999.6,N
1564172555.7,286046999.3,N
1564172575.5,286046997.3,N
1564172595.4,286046997.0,N
1564172615.2,286046997.2,N
1564172635.1,286046997.8,N
1564172636.0,286046997.8,N
1564172655.8,286046997.4,N
1564172675.6,286046997.8,N
1564172695.5,286046997.8,N
1564172715.3,286046996.8,N
1564172735.2,286046996.5,Y
1564172755.9,286046998.5,P
1564172775.7,286046998.3,P
1564172795.6,286046998.2,P
1564172815.4,286046998.4,Y
1564172835.2,286047000.0,P
1564172855.1,286047000.4,N
1564172856.0,286047000.4,N
1564172875.8,286047001.0,N
1564172895.7,286046998.6,N
1564172915.5,286046997.1,Y
1564172935.4,286046997.7,P
1564172955.2,286046997.0,N
1564172975.0,286046996.6,N
1564172975.9,286046996.6,N
1564172995.8,286046999.4,N
1564173015.6,286046998.8,N
1564173035.5,286047000.0,N
1564173055.3,286046998.5,N
1564173075.1,286047011.9,Y
1564173095.9,286047001.9,P
1564173115.7,286047002.0,N
1564173135.5,286047002.1,N
1564173155.4,286047001.3,N
1564173175.2,286046999.7,N
1564173195.1,286046999.7,N
1564173196.0,286046999.7,N
1564173215.8,286046999.9,N
1564173235.6,286047002.8,N
1564173255.5,286047000.9,N
1564173275.3,286046998.1,N
1564173295.1,286047000.9,N
1564173315.9,286047002.0,N
1564173335.7,286046999.7,N
1564173355.6,286046999.8,N
1564173375.4,286047000.1,N
1564173395.2,286047000.9,N
1564173415.1,286046999.2,N
1564173416.0,286046999.2,N
1564173435.8,286047001.1,N
1564173455.7,286047001.8,N
1564173475.5,286047002.3,N
1564173495.3,286047001.1,N
1564173515.2,286047002.6,N
1564173535.0,286047002.6,N
1564173535.9,286047002.6,N
1564173555.7,286047001.8,N
1564173575.6,286047001.4,N
1564173595.4,286047003.9,N
1564173615.3,286047004.3,Y
1564173635.1,286046998.6,P
1564173655.9,286046998.3,N
1564173675.7,286046998.2,N
1564173695.5,286046998.3,N
1564173715.4,286047001.1,N
1564173735.2,286047000.5,N
1564173755.0,286047000.5,N
1564173755.9,286047000.5,N
1564173775.8,286047000.6,N
1564173795.6,286047000.7,N
1564173815.5,286047000.6,N
1564173835.3,286047002.8,N
1564173855.1,286047000.0,N
1564173875.9,286046999.8,N
1564173895.7,286046999.7,N
1564173915.5,286047000.4,N
1564173935.4,286047001.9,N
1564173955.2,286047002.7,N
1564173975.1,286047003.9,N
1564173976.0,286047003.9,N
1564173995.8,286047001.9,N
1564174015.6,286047001.6,N
1564174035.5,286046999.7,N
1564174055.3,286046999.8,N
1564174075.2,286047000.1,N
1564174095.9,286047001.4,N
1564174115.7,286047001.9,N
1564174135.6,286047004.3,N
1564174155.4,286047001.8,N
1564174175.3,286047004.3,N
1564174195.1,286047004.4,N
1564174196.0,286047004.4,N
1564174215.8,286047003.2,N
1564174235.7,286047003.0,N
1564174255.5,286047003.5,N
1564174275.3,286047001.5,N
1564174295.2,286047003.8,N
1564174315.0,286047001.3,N
1564174315.9,286047001.3,N
1564174335.8,286047001.3,N
1564174355.6,286047004.3,N
1564174375.4,286047001.9,N
1564174395.3,286047002.4,N
1564174415.1,286047002.8,N
1564174435.9,286047003.7,N
1564174455.7,286047006.0,Y
1564174475.5,286047002.2,P
1564174495.4,286047000.5,P
1564174515.2,286047002.7,P
1564174535.0,286046999.8,N
1564174536.0,286046999.8,N
1564174555.8,286047001.5,N
1564174575.6,286047001.2,N
1564174595.5,286047000.9,N
1564174615.3,286047000.7,N
1564174635.1,286047002.8,N
1564174655.9,286047002.5,N
1564174675.7,286047000.7,N
1564174695.6,286046999.8,N
1564174715.4,286047002.3,N
1564174735.2,286047002.4,N
1564174755.1,286047000.9,N
1564174756.0,286047000.9,N
1564174775.8,286047000.2,N
1564174795.6,286046999.7,N
